Location: Voyageurs National Park
(48.5020°N, 92.9292°W)
Time: 05:07:29
(UTC-05:00)

Cosmos 1892 - Pass Details

Date: 19 January 2018
Orbit: 506 x 527 km, 82.5° (Epoch: 19 May)

Event Time Altitude Azimuth Distance (km) Brightness Sun altitude
Rises 07:22:30 0° 356° (N) 2,668 6.0 -5.7°
Reaches altitude 10° 07:24:45 10° 3° (N) 1,771 5.2 -5.3°
Maximum altitude 07:28:27 42° 75° (ENE) 756 4.0 -4.8°
Drops below altitude 10° 07:32:07 10° 148° (SSE) 1,744 6.4 -4.2°
Sets 07:34:18 0° 155° (SSE) 2,622 7.2 -3.9°
